Theta_e
325 328 330 329 330 330 331 332 331 331 332 333 332 331 331 331 331 330 334 337 333 332 332 331 330 329 331 330 328 329 329 331 333 328 326 332 326 326 328 332 329 330 330 329 331 330 330 331 331 330 329 329 329 329 330 329 331 330 330 331 330 328 329 336 338 335 331 330 337 333 334 337 331 333 332 333 335 339 339 338 337 336 336 336 338
324 327 330 331 330 333 332 331 332 329 331 332 332 332 331 331 330 332 333 333 335 334 334 333 332 331 329 332 329 330 329 326 328 329 333 331 332 327 326 333 330 328 330 333 333 330 330 330 330 330 331 329 330 329 329 332 331 328 328 327 329 327 327 332 334 331 328 326 324 326 329 329 329 328 331 335 336 338 338 338 337 335 335 337 338
324 325 328 329 331 330 331 333 333 332 332 331 333 333 333 330 332 332 333 333 334 333 332 330 333 334 332 332 330 330 337 335 329 332 336 332 330 330 325 329 331 329 326 330 330 330 331 331 329 330 330 330 330 329 327 327 327 328 327 325 324 327 328 331 333 333 325 326 327 326 323 324 325 329 331 330 332 337 337 337 335 335 336 338 338
322 325 326 328 330 330 331 331 333 333 333 332 332 331 331 331 330 331 333 333 333 334 333 333 334 336 334 334 334 332 330 331 335 332 336 331 327 329 325 323 329 328 325 324 327 331 331 328 329 328 330 330 329 327 326 323 324 325 325 325 325 321 323 325 330 333 331 326 320 321 322 323 318 321 325 329 334 333 334 334 336 336 336 337 336
321 324 327 328 328 328 329 331 333 332 332 332 332 331 331 330 331 331 334 334 332 331 332 331 333 332 334 333 334 333 333 330 331 329 329 327 330 330 326 325 326 326 327 326 324 326 329 329 329 328 328 329 327 325 324 323 323 323 324 324 323 322 321 323 327 331 330 330 325 321 320 319 318 321 323 325 329 330 333 332 335 335 334 334 334
321 323 326 327 328 329 329 330 332 331 332 334 334 334 333 332 332 333 336 334 331 332 332 330 328 331 331 326 327 327 327 329 326 327 328 330 329 330 330 326 324 328 327 326 325 327 330 329 329 327 328 329 328 325 323 324 322 323 323 324 324 325 323 322 322 327 329 332 331 329 326 319 319 323 323 316 329 332 331 332 332 332 334 334 333
322 324 325 327 329 329 331 330 330 330 332 334 334 334 334 333 333 332 334 334 333 333 334 334 331 331 330 329 328 328 326 328 335 335 333 332 331 332 331 330 325 327 330 328 327 327 328 329 329 328 328 327 329 327 324 323 321 322 325 324 325 326 325 321 321 321 325 328 328 329 330 328 328 321 318 321 317 325 331 331 330 332 333 333 333
321 322 323 325 328 329 330 330 331 331 332 332 335 335 334 333 333 333 334 334 333 334 334 334 333 333 330 328 330 329 329 328 331 333 332 336 334 332 331 330 329 328 328 327 327 326 328 328 327 328 328 326 326 326 324 323 324 323 326 327 327 327 325 322 321 322 320 322 325 326 327 329 329 329 326 321 318 317 321 326 328 329 331 333 333
319 320 323 324 326 328 330 330 333 333 335 334 332 335 337 337 335 335 334 335 335 335 335 335 333 335 332 330 330 331 330 331 330 330 334 335 329 331 333 329 330 330 330 330 332 328 329 328 328 327 327 326 325 324 325 323 323 323 323 324 325 325 325 326 323 321 322 321 321 322 323 324 326 329 327 325 320 318 318 320 322 329 328 331 334
318 321 323 325 327 329 331 332 332 333 336 333 333 334 334 335 334 334 334 335 335 335 335 334 335 334 334 333 330 330 330 331 334 331 333 332 331 331 330 331 334 328 329 332 330 328 331 329 329 327 327 326 327 325 325 324 324 323 323 323 325 324 326 325 323 322 323 324 322 322 320 320 321 322 325 324 323 322 317 319 322 321 319 326 333
318 323 322 325 327 330 329 330 330 333 337 335 335 331 334 334 333 333 334 334 335 335 336 334 335 336 333 331 331 330 329 331 330 331 333 329 330 330 329 332 336 329 327 330 328 325 330 330 329 326 327 328 327 325 324 323 324 323 323 324 324 322 322 323 322 322 323 322 321 322 320 319 318 319 320 321 321 320 319 320 321 323 323 323 329
317 321 321 324 326 327 328 327 328 329 331 333 332 332 331 334 334 333 334 334 335 336 336 337 336 336 335 335 333 333 331 330 329 328 329 328 331 331 331 332 332 331 331 327 328 328 330 331 331 329 328 327 326 325 324 322 322 323 323 322 322 322 322 322 320 320 320 320 321 321 321 321 321 320 321 323 322 320 321 319 320 323 323 325 332
316 318 320 324 324 327 326 326 329 329 331 331 333 336 335 334 333 335 335 337 338 338 337 337 337 336 335 335 336 336 335 330 329 331 330 329 328 329 333 330 329 329 327 324 325 328 328 329 329 328 327 328 328 326 324 323 323 323 322 322 320 320 320 320 319 319 319 319 319 321 321 320 320 321 323 322 324 325 322 319 321 322 319 321 325
317 317 317 319 324 324 328 326 328 331 330 333 334 335 335 332 335 334 335 338 339 338 337 337 336 337 338 337 336 335 336 335 334 332 330 333 334 332 334 330 328 329 326 325 326 329 329 329 329 329 328 326 326 325 324 325 324 322 320 321 320 322 322 321 320 321 320 320 320 319 318 319 320 323 323 322 321 320 320 319 319 320 321 320 323
317 317 318 320 324 324 329 327 331 332 331 332 334 333 336 333 335 333 333 333 337 338 338 338 338 337 336 336 334 334 337 336 338 336 337 333 336 332 335 332 330 328 329 327 325 328 329 327 329 328 328 327 327 325 325 326 325 323 323 323 323 322 323 323 323 321 320 320 320 319 319 319 320 320 322 322 322 321 320 320 320 316 317 319 319
315 318 318 320 324 327 328 326 331 333 330 332 330 334 334 333 333 333 332 335 335 337 336 337 336 337 338 337 336 336 338 337 338 338 337 335 332 334 331 330 332 332 330 327 327 328 329 326 328 327 327 328 327 326 326 326 325 324 322 322 320 322 320 320 321 320 321 322 320 320 320 319 320 322 322 322 323 323 322 322 321 319 316 313 317
315 316 318 322 322 325 327 328 330 330 332 331 332 333 332 332 334 332 331 334 334 335 335 336 337 337 338 336 338 337 337 335 335 334 335 336 336 335 338 333 335 330 329 332 326 329 330 323 329 327 328 328 328 327 325 325 326 324 324 322 321 322 321 319 321 321 321 323 322 321 320 320 320 322 321 322 322 321 323 322 322 319 320 316 314
315 317 319 321 321 323 322 326 325 329 330 327 331 333 336 334 334 333 332 332 332 335 335 335 336 336 337 338 338 337 335 332 334 333 335 335 335 335 333 335 331 329 330 328 328 329 324 326 325 327 328 328 327 328 327 325 325 325 324 324 324 324 321 321 321 320 320 321 322 321 320 319 320 320 320 321 320 320 320 322 321 322 321 318 317
316 318 319 320 323 324 326 325 323 327 329 332 325 333 331 333 335 336 333 334 333 336 337 339 338 336 335 336 336 337 337 337 337 336 336 334 333 333 332 331 332 330 329 330 327 322 322 327 327 326 324 324 326 325 326 325 325 324 324 324 324 324 322 320 321 322 320 321 319 318 319 319 319 320 322 322 321 321 320 320 320 321 321 321 320
315 317 319 319 321 323 323 326 321 327 327 330 332 330 331 334 334 333 336 336 337 335 337 336 338 337 336 337 337 332 332 332 336 337 336 334 334 332 331 331 331 333 328 329 324 323 326 324 324 323 324 323 321 322 323 325 324 324 323 324 323 322 320 319 321 322 322 321 319 318 318 317 318 321 322 322 321 320 321 319 320 321 320 321 321
317 318 318 322 326 327 326 329 324 322 324 328 331 330 331 334 332 332 333 334 334 337 337 337 340 338 336 336 336 337 337 337 335 336 335 334 336 335 333 333 331 330 330 326 323 323 325 326 325 325 321 318 323 325 324 322 324 323 323 322 323 321 319 319 320 319 322 322 321 318 317 317 318 318 321 322 320 320 320 320 320 320 320 320 320
322 323 320 320 327 328 327 326 325 323 328 330 330 331 329 330 324 334 331 330 333 334 333 335 339 339 335 337 336 336 335 335 335 336 335 335 335 336 335 332 330 330 329 326 324 325 327 327 321 324 321 320 322 319 324 323 322 320 320 321 321 322 321 319 319 317 318 321 322 319 317 317 319 318 320 320 319 319 318 317 317 319 318 319 322
324 323 321 325 327 325 325 326 325 323 325 329 330 329 327 330 326 327 329 331 332 335 334 335 333 333 334 335 337 335 336 337 335 335 335 335 336 336 335 332 331 330 329 328 326 327 322 320 323 325 324 317 318 323 324 322 321 320 317 319 322 321 320 319 318 316 316 318 317 318 317 317 319 317 320 321 321 320 319 318 318 320 319 320 321
322 325 327 328 327 327 322 322 322 323 327 328 330 326 329 328 328 333 331 332 334 333 335 332 333 334 333 333 333 334 334 335 336 336 335 335 336 336 335 333 330 330 326 329 327 322 327 326 324 324 319 318 323 323 322 324 323 320 317 316 316 319 320 319 318 315 316 317 316 316 318 317 317 316 317 319 320 320 320 320 320 320 321 321 322
320 321 324 327 323 321 318 318 319 319 322 329 326 326 327 330 331 329 333 336 333 333 331 329 332 335 337 338 336 334 333 334 336 337 336 334 337 336 338 331 330 329 326 328 327 326 330 320 318 320 317 317 319 321 321 322 322 321 319 316 316 315 317 318 318 318 317 317 316 316 316 317 316 315 316 317 320 319 320 320 319 320 320 320 321
320 321 323 326 320 318 320 323 319 321 319 323 327 326 327 328 334 334 335 331 333 333 332 333 333 333 333 334 334 335 335 334 334 335 337 339 337 334 333 333 328 326 327 327 329 328 323 320 319 316 321 315 318 321 317 319 321 321 321 318 317 316 316 316 316 317 317 317 317 316 316 317 316 315 315 318 320 319 319 319 319 319 319 320 320
320 322 324 325 325 327 319 322 319 323 322 320 321 322 321 328 330 330 329 332 333 331 333 335 333 332 334 333 332 333 332 337 337 338 337 337 335 335 331 328 329 327 328 328 327 324 324 322 318 322 320 323 321 321 320 322 321 321 316 315 315 314 314 315 317 316 317 318 317 317 317 317 316 316 316 317 317 316 317 317 319 319 320 319 318
321 321 320 320 322 322 325 327 327 322 319 321 321 320 323 326 326 331 330 332 333 330 332 327 329 333 333 334 334 332 331 334 336 336 337 334 330 330 330 332 329 328 328 329 326 323 324 325 326 325 324 322 322 322 319 320 319 319 316 315 315 316 314 315 316 317 318 318 318 317 317 317 317 317 318 318 317 316 318 317 317 318 318 317 316
316 321 322 322 321 326 328 326 328 329 327 328 320 318 324 328 323 323 326 330 330 329 327 326 327 329 331 334 334 336 333 337 335 333 333 332 332 333 331 329 332 332 333 331 326 324 322 320 321 320 319 323 324 324 324 326 319 320 318 316 315 315 314 313 314 315 316 317 316 317 317 317 320 320 323 321 321 321 319 316 317 318 317 315 314
315 318 320 326 326 327 330 331 331 328 325 323 326 323 320 325 326 324 326 330 331 331 329 327 324 326 332 328 329 333 330 334 332 332 330 331 331 333 332 333 332 329 328 326 325 324 323 322 320 320 324 327 325 325 325 319 319 320 318 317 316 316 316 313 313 313 314 315 315 316 319 319 323 323 321 317 313 314 320 320 318 317 316 315 314
316 323 322 323 324 323 325 326 327 326 327 327 330 331 333 326 325 325 323 330 321 327 325 324 323 324 325 328 329 328 329 327 328 330 333 328 326 328 329 327 328 330 329 330 329 324 323 324 322 319 320 326 327 326 310 302 303 309 317 316 315 315 315 313 312 312 312 314 315 315 317 319 319 321 319 315 311 310 310 311 312 314 317 316 314
315 315 317 317 318 323 325 325 326 328 329 326 327 327 326 324 323 321 320 323 324 329 329 327 323 326 325 323 328 326 324 325 328 325 325 324 326 327 326 326 326 326 326 327 327 324 324 326 325 322 320 322 323 318 298 299 300 302 311 317 316 314 314 312 311 311 311 312 313 315 317 319 319 320 318 317 316 314 308 306 304 302 303 303 306
322 318 318 318 318 326 327 330 329 326 324 323 325 324 324 324 324 326 324 329 328 329 325 323 323 322 322 331 325 324 325 331 326 324 325 328 325 325 325 327 326 327 327 326 324 324 324 327 325 321 321 323 322 304 297 299 298 298 300 313 312 314 312 311 311 311 310 311 311 314 314 316 317 319 319 317 317 317 313 307 307 307 307 304 299
322 322 322 326 325 329 330 326 332 328 326 332 330 327 332 327 324 322 324 323 321 322 323 321 322 322 322 323 323 322 323 324 327 331 330 326 328 326 329 329 329 330 329 327 326 326 325 323 323 322 322 322 321 303 297 298 298 297 297 301 312 314 312 311 310 311 311 311 313 314 313 314 316 318 319 320 319 318 317 315 315 316 316 317 311
325 327 323 329 332 331 326 332 329 325 334 337 328 324 326 325 326 323 322 323 323 321 323 324 324 323 324 323 321 322 325 324 324 325 327 324 324 326 327 328 328 327 325 324 325 324 324 323 323 323 322 323 323 300 297 297 297 296 296 299 313 313 312 311 311 312 312 312 313 315 315 314 314 316 321 319 318 317 315 314 313 312 312 314 315
325 324 324 333 332 330 335 334 332 334 327 324 326 330 327 326 327 324 324 322 321 320 320 324 323 324 322 323 322 322 323 322 322 322 323 323 324 325 324 325 325 326 325 325 325 324 324 324 324 323 321 321 329 297 297 297 297 296 295 308 313 312 312 311 311 312 312 313 315 316 314 314 314 316 314 306 311 316 313 311 310 310 310 312 314
326 325 332 333 335 335 336 336 336 335 333 332 333 332 331 325 323 323 321 319 321 320 319 322 323 323 323 323 322 322 323 324 323 324 325 325 325 325 325 325 324 323 323 323 322 323 324 323 323 323 324 322 329 300 296 297 297 295 298 311 313 312 311 310 311 312 314 314 314 314 313 316 317 315 301 290 293 310 312 310 309 308 309 310 311
330 326 334 336 335 335 336 336 336 334 333 333 333 329 326 325 323 323 321 320 320 319 320 320 320 320 322 322 323 321 321 322 322 320 321 324 327 327 326 328 324 322 321 322 323 323 324 323 323 323 322 319 319 313 296 297 296 295 306 312 313 311 310 310 311 313 313 313 314 320 320 315 313 314 293 292 292 310 311 310 309 308 307 307 308
328 331 333 332 334 335 334 335 334 331 333 333 333 332 328 324 323 324 321 320 321 321 322 321 322 322 322 323 331 331 330 329 325 324 326 325 327 328 329 330 328 326 325 326 323 321 321 322 322 322 325 322 320 318 296 297 297 295 303 312 313 310 308 309 310 311 314 314 314 318 320 317 317 306 291 291 292 311 311 310 309 308 307 307 308
322 330 331 333 335 335 332 332 331 331 333 330 330 326 325 324 323 325 323 321 322 323 322 323 324 325 325 324 324 323 323 324 323 325 328 327 329 328 329 328 328 324 321 322 321 320 319 319 320 321 321 321 320 320 306 297 297 296 299 312 313 309 308 309 310 310 310 311 312 313 312 294 295 293 293 292 292 298 310 310 310 308 307 306 310
326 332 325 331 333 331 329 330 330 331 330 330 328 326 325 325 325 324 323 323 325 325 324 323 323 324 324 323 324 326 330 329 327 327 328 327 327 325 325 325 325 324 323 323 322 323 323 322 323 323 324 325 323 322 312 296 297 297 297 305 311 309 308 308 308 308 309 311 310 311 311 297 293 292 291 291 292 292 299 309 309 308 308 309 306
326 326 329 337 336 334 332 330 331 332 333 330 329 326 324 324 324 324 325 327 326 324 324 323 322 321 322 322 324 327 328 329 328 328 328 327 328 327 325 325 325 323 323 322 322 322 322 321 321 322 323 323 325 323 325 299 297 297 297 298 309 310 309 309 309 309 310 310 312 311 314 302 292 290 290 292 292 292 291 304 308 301 300 298 304
333 333 329 326 327 329 330 331 332 333 331 329 329 326 325 324 323 325 328 328 327 326 324 323 322 321 322 324 326 329 330 330 329 328 327 326 326 325 325 325 324 323 323 322 322 322 321 321 321 322 321 321 322 321 311 310 298 297 297 296 300 305 301 310 309 309 309 310 310 313 313 300 292 291 290 291 292 292 293 300 299 297 297 295 298
326 328 327 328 326 324 327 330 330 331 330 328 327 325 324 323 324 327 328 328 327 326 324 322 323 324 324 324 325 328 330 330 329 327 326 325 325 325 324 324 323 322 320 320 320 320 320 319 318 319 320 320 321 321 312 308 305 296 297 296 296 298 300 307 309 308 309 309 310 315 310 297 293 293 292 293 293 293 298 297 296 296 295 296 301
327 326 326 324 321 325 325 327 328 331 330 328 327 326 325 324 326 327 327 328 327 325 324 323 323 323 323 324 325 325 326 328 327 327 325 324 324 325 323 323 322 321 320 319 319 319 319 318 317 317 318 319 321 321 322 310 301 298 296 296 296 296 296 297 305 308 309 309 304 294 294 292 293 293 294 294 294 295 293 294 294 294 302 302 302
324 324 325 325 328 327 329 327 325 325 327 332 333 329 326 327 329 328 328 328 328 326 324 323 324 324 324 324 324 324 325 325 327 325 325 324 324 323 322 322 322 320 320 319 318 318 317 317 317 318 318 319 320 320 321 320 307 304 299 296 296 296 299 298 301 304 301 298 296 293 293 292 293 294 297 301 304 306 300 297 295 297 302 304 306
329 330 326 326 327 326 325 326 326 329 330 328 329 329 328 328 328 329 329 329 328 327 324 323 322 323 325 326 324 322 322 323 325 324 324 324 323 323 322 320 321 319 319 318 318 316 316 315 316 317 318 318 318 319 318 319 313 311 307 304 300 300 299 298 300 301 301 301 301 301 302 299 299 299 299 299 300 302 304 306 305 306 306 306 306
326 327 326 325 323 322 325 326 324 326 329 328 327 326 327 330 328 327 327 328 327 327 325 324 324 324 322 323 324 315 319 321 322 324 323 322 322 322 322 320 319 319 318 317 317 316 315 315 315 315 316 316 316 318 319 321 318 314 311 310 308 306 305 303 303 304 305 307 307 303 302 305 306 306 306 306 306 307 305 304 306 307 307 307 309
324 327 327 325 323 322 324 327 326 326 325 324 325 327 326 328 329 327 326 324 324 323 326 327 327 325 324 323 324 323 323 321 321 322 323 323 322 322 322 321 323 322 321 319 319 320 319 320 319 317 317 317 315 317 314 300 305 304 316 318 313 310 309 308 308 301 308 310 309 309 309 309 309 307 307 308 309 309 309 309 308 307 307 308 309
324 323 324 326 326 326 327 327 325 326 326 324 324 323 324 322 321 323 326 325 325 328 330 328 326 324 323 324 326 325 324 321 321 322 322 323 311 309 316 322 323 308 306 307 310 319 321 319 317 317 318 317 317 319 299 294 294 295 294 296 295 295 298 306 299 294 305 309 310 310 310 309 309 308 308 308 307 308 308 307 308 303 306 307 307
324 323 322 322 324 325 324 323 324 326 325 324 324 322 322 322 321 323 323 323 321 320 320 322 323 322 320 324 324 324 324 323 322 322 321 320 321 319 302 302 307 303 300 301 301 304 306 307 315 317 315 306 304 298 294 296 295 296 295 294 295 295 295 293 294 308 307 306 306 306 306 307 307 308 307 307 306 306 305 306 308 307 307 305 304
Wind_Speed
2 4 5 5 6 6 5 4 5 6 5 6 6 4 3 3 3 3 1 2 2 2 2 2 2 4 3 4 5 4 4 4 2 5 4 2 4 4 3 2 3 3 3 4 4 5 4 5 5 4 5 6 5 4 4 6 4 6 5 3 4 4 4 2 2 4 5 3 1 5 5 4 9 3 3 2 2 1 0 1 0 2 1 1 0
2 4 5 4 4 6 5 4 5 7 6 6 7 7 5 5 4 2 2 1 2 1 2 1 1 2 2 2 3 2 3 4 3 3 1 2 2 4 6 2 2 3 3 2 2 3 3 4 5 4 4 4 4 4 4 7 4 5 6 5 4 5 4 5 4 4 3 4 5 4 2 7 6 3 3 1 1 1 1 1 1 1 1 1 1
3 3 4 5 4 5 5 4 4 6 6 6 6 7 7 6 4 2 3 2 1 2 1 1 2 3 3 3 4 3 0 1 3 3 2 3 3 3 5 4 2 2 5 3 2 3 2 4 4 5 3 4 4 4 5 6 6 5 7 6 6 5 5 4 4 4 3 6 6 3 2 1 2 2 2 5 3 0 0 0 0 1 3 4 2
3 4 3 5 5 5 5 5 4 5 5 6 6 6 5 5 5 5 4 3 2 1 2 3 1 2 4 3 3 4 3 2 2 3 1 2 5 3 4 6 2 2 5 7 3 2 3 5 4 5 4 4 5 4 4 6 6 5 5 6 7 7 6 6 5 4 3 5 5 3 4 2 1 5 2 0 3 1 1 1 1 2 2 3 3
2 3 4 4 5 6 6 5 5 5 5 7 6 6 5 6 5 5 5 5 4 2 2 2 2 3 4 2 3 3 2 4 2 3 4 4 1 2 4 4 3 4 3 5 5 4 4 4 4 4 5 4 5 5 4 6 6 6 8 7 8 7 7 5 4 5 6 6 4 4 3 2 2 0 3 1 3 3 0 0 1 1 2 1 2
3 3 5 7 5 6 6 6 5 5 5 5 6 6 6 5 5 5 5 4 4 4 3 2 2 3 1 2 3 3 3 2 2 1 2 2 1 2 2 3 5 3 3 3 5 4 3 3 4 4 4 4 4 6 5 5 7 6 7 6 7 7 6 6 7 6 5 1 4 4 2 3 4 3 2 2 1 2 2 1 0 0 2 2 2
3 6 5 5 4 5 6 6 7 6 6 6 7 7 7 5 5 6 5 5 5 5 5 5 5 5 5 5 4 3 3 2 0 1 2 2 2 2 2 2 3 3 2 3 3 4 4 3 3 3 3 4 3 4 5 6 6 6 6 6 6 6 6 5 6 6 6 4 5 4 2 2 2 5 2 3 1 1 1 1 2 1 1 2 0
9 5 4 3 5 4 6 6 6 5 5 5 5 5 6 7 6 5 4 5 5 4 6 5 4 4 5 4 3 4 4 3 2 1 3 1 2 0 2 2 2 3 3 4 3 4 4 5 5 4 4 4 5 4 4 5 5 6 5 5 5 5 5 5 5 5 6 6 7 5 5 3 1 1 1 1 2 3 2 1 1 2 2 2 2
4 6 4 4 4 4 4 4 4 5 3 3 5 5 4 4 5 5 5 5 5 5 5 6 8 6 5 4 4 1 4 3 2 2 2 1 1 2 1 2 2 2 2 2 2 2 3 3 3 4 4 4 5 5 4 5 5 5 6 6 4 5 4 4 4 5 5 5 7 7 6 5 3 0 2 2 2 3 2 1 3 1 1 4 3
6 8 5 6 5 5 3 2 4 3 3 4 3 7 6 5 5 7 7 5 5 6 7 8 7 6 5 4 5 4 5 3 1 3 2 2 1 2 2 1 1 3 2 2 2 2 1 2 2 3 4 5 4 4 4 5 4 4 5 5 5 4 3 4 4 5 5 4 4 5 6 7 5 4 1 4 2 2 3 4 3 3 3 1 3
10 8 10 6 5 6 3 4 4 2 2 2 3 5 8 6 7 8 8 6 6 7 8 7 6 6 5 7 6 5 6 2 2 2 2 2 1 1 3 1 0 2 3 1 3 3 1 0 2 3 3 3 4 4 4 4 4 5 5 6 5 7 6 6 6 5 5 5 6 5 6 6 6 6 5 3 3 4 5 4 4 3 2 4 1
9 11 10 8 7 5 3 3 1 1 1 1 2 2 4 8 8 10 10 9 9 8 8 6 5 5 6 5 4 5 5 2 3 3 2 2 2 2 1 3 1 1 2 3 2 2 2 1 1 2 3 3 2 3 4 4 4 4 5 5 5 5 5 5 6 6 7 5 4 5 4 4 5 6 6 4 3 4 5 6 5 4 5 3 1
6 2 7 8 7 5 4 4 3 3 2 2 2 1 2 2 6 4 6 7 6 6 6 6 5 5 5 4 4 3 1 3 3 2 2 1 2 1 2 3 1 2 3 4 3 3 1 2 1 1 1 2 2 2 3 4 3 4 4 4 5 5 5 5 5 5 6 5 5 4 5 4 4 5 5 5 4 2 3 5 5 4 4 5 3
2 7 6 5 3 6 4 3 8 4 4 2 2 1 1 2 2 4 5 4 5 4 5 5 5 4 3 2 3 4 4 3 2 2 2 1 1 1 0 1 4 2 3 3 2 2 1 2 2 1 2 3 3 3 3 3 3 4 4 3 4 4 4 5 4 5 4 5 5 5 5 5 5 4 3 5 5 6 5 4 5 5 4 5 3
6 7 7 6 4 3 3 1 3 3 4 4 2 2 1 2 2 2 1 2 5 4 4 3 1 4 4 3 2 5 3 1 1 2 1 1 2 1 0 2 3 3 3 2 4 3 2 1 2 2 2 2 2 3 3 2 3 3 4 2 3 3 2 3 2 3 4 4 4 4 5 5 5 5 5 4 4 4 4 5 4 6 6 5 5
5 9 8 5 3 4 2 2 1 1 3 4 3 3 2 2 2 2 1 3 5 4 5 3 4 3 5 5 7 6 3 3 3 2 1 2 1 1 1 2 1 3 1 3 3 2 2 3 0 0 1 1 2 2 2 2 2 2 3 3 3 3 5 5 4 4 4 3 3 3 3 4 6 5 4 5 4 4 4 4 5 3 5 7 5
4 7 7 5 6 2 1 3 4 3 2 4 3 3 2 2 1 1 1 1 3 2 3 2 4 3 4 5 4 3 3 3 3 2 2 2 1 1 1 1 1 3 3 2 3 2 2 4 1 0 1 0 2 2 2 2 1 0 1 2 3 2 3 4 4 3 4 3 3 4 4 4 4 4 4 4 5 5 4 4 3 5 3 4 5
4 5 6 6 3 3 2 4 2 3 2 1 2 2 2 0 1 2 2 2 1 2 5 5 4 5 4 4 3 3 3 3 3 3 3 3 3 2 2 1 2 4 3 2 2 2 4 3 2 2 2 1 2 1 1 2 2 1 1 2 2 1 2 2 3 4 4 3 3 4 3 5 3 4 4 4 4 5 6 5 4 4 5 5 3
1 4 7 5 4 4 3 2 3 1 1 1 1 4 3 2 2 2 2 2 2 1 2 1 2 1 2 2 3 2 2 2 2 2 3 3 3 3 3 3 2 3 4 2 2 4 5 2 1 2 4 3 2 3 2 2 1 1 1 2 2 2 3 3 3 2 3 3 3 5 5 5 5 4 2 2 4 5 5 6 5 4 5 5 4
3 5 7 5 4 3 4 2 4 3 2 5 3 1 2 3 3 2 2 1 1 2 1 1 1 2 2 2 2 3 4 3 2 2 2 3 3 3 3 3 3 2 4 2 5 3 3 3 1 3 2 4 5 4 4 2 2 2 2 2 2 2 3 3 3 2 2 3 3 4 4 6 6 3 2 2 3 5 4 5 6 5 4 5 4
2 4 3 5 4 3 2 3 2 3 1 5 1 1 2 3 4 3 3 2 2 1 1 2 2 2 2 2 3 2 2 2 3 2 3 3 3 3 2 2 2 3 3 4 3 6 2 1 2 1 2 5 2 1 3 4 1 1 2 3 2 2 3 3 3 3 2 2 2 3 5 6 7 4 2 2 4 4 4 5 5 5 5 4 4
3 2 2 2 5 3 5 4 6 6 4 5 3 5 5 3 4 2 5 4 2 2 3 2 2 2 3 2 3 3 3 3 3 3 3 3 3 3 3 2 3 3 3 5 6 3 2 2 2 1 3 3 3 3 2 2 2 3 4 3 3 2 2 2 3 4 3 2 2 2 4 6 6 7 2 2 3 4 6 6 6 5 5 5 4
5 2 1 4 3 1 1 3 3 4 2 3 1 1 4 2 5 5 4 6 4 2 2 2 3 3 3 3 2 3 3 3 4 3 3 4 3 3 3 3 3 3 3 3 5 2 2 5 2 1 2 5 4 2 1 1 3 3 4 3 2 2 1 2 3 4 5 4 4 3 3 5 5 8 4 2 3 4 5 6 6 4 4 4 5
3 3 2 2 2 5 7 6 8 6 6 6 4 2 4 6 3 2 4 1 3 3 2 3 3 4 5 4 4 4 4 3 4 4 5 4 4 3 4 3 3 3 4 3 3 8 0 3 2 1 4 6 0 1 2 2 1 1 3 5 4 3 1 1 2 4 4 4 5 5 3 4 6 7 5 3 3 4 5 5 7 7 7 5 3
3 4 4 4 4 2 5 5 4 3 2 6 4 3 1 2 1 1 2 2 3 3 4 5 4 3 2 1 2 4 4 4 4 4 5 6 4 3 1 3 3 3 4 3 4 5 1 3 7 2 4 8 3 1 2 0 1 3 3 4 4 4 3 2 3 3 4 4 4 4 4 3 4 6 7 5 3 7 7 6 7 7 6 6 6
3 3 3 2 3 5 4 1 2 4 1 2 6 4 2 1 1 3 0 3 1 2 2 2 1 2 2 2 3 2 2 3 3 3 4 3 2 3 5 4 3 4 4 4 2 2 5 3 4 5 3 6 6 2 4 2 1 1 2 4 5 6 5 3 3 4 3 3 3 3 4 3 4 5 6 4 4 4 4 4 6 6 6 5 5
3 3 2 3 4 3 4 4 4 3 3 3 3 3 3 3 4 5 4 3 2 2 1 1 2 3 1 2 3 2 1 1 2 2 2 2 2 1 2 4 4 4 3 3 3 4 5 4 7 3 5 1 3 2 4 2 1 2 3 2 3 5 7 6 3 3 3 3 4 4 4 3 3 4 5 4 3 4 4 5 5 5 5 5 5
4 4 5 5 4 5 5 3 2 3 4 4 2 4 2 3 2 1 2 4 2 1 2 3 3 2 1 2 2 0 0 1 1 1 1 1 2 4 4 3 3 4 3 2 3 5 4 3 3 2 2 3 2 2 4 4 3 2 2 0 1 2 4 5 5 4 3 3 3 4 4 5 3 3 3 3 4 4 3 4 4 5 5 5 5
7 5 6 7 5 4 2 2 2 2 3 2 4 5 4 2 2 3 3 3 5 4 4 4 4 4 3 2 1 1 2 1 1 2 2 2 3 2 3 3 2 1 1 2 3 5 5 6 4 6 6 3 3 2 3 0 3 2 2 0 1 1 3 6 6 5 4 4 4 3 4 4 6 8 7 7 8 6 3 3 4 3 3 4 5
7 5 3 1 2 2 3 3 3 3 4 4 4 4 5 3 3 4 4 2 3 3 2 3 4 4 3 4 3 3 3 2 2 2 3 3 2 2 1 1 2 2 3 4 5 4 5 5 6 6 2 2 2 2 5 7 5 3 2 1 0 2 2 4 6 6 4 5 6 4 5 12 7 3 6 9 11 9 9 7 4 2 2 3 4
5 3 4 4 4 4 4 5 4 4 4 3 2 2 1 2 3 2 3 2 4 4 6 5 5 4 4 3 3 3 3 4 4 3 2 3 4 5 4 4 3 2 3 2 3 3 5 5 4 7 5 2 2 2 9 9 8 7 3 1 2 2 2 3 5 6 6 5 4 4 3 5 6 5 4 7 9 8 12 10 6 6 6 4 4
5 5 4 4 2 3 5 5 4 3 4 5 4 4 3 3 4 5 6 5 6 2 1 2 3 3 4 4 3 4 6 5 4 5 6 6 5 4 5 5 5 6 5 4 3 4 4 3 3 4 6 4 3 7 11 11 10 9 5 2 2 2 2 3 5 7 6 6 4 4 3 3 3 3 4 4 7 10 6 6 8 8 8 9 8
3 4 4 5 4 3 3 1 3 3 4 6 6 6 4 4 5 5 4 2 1 2 3 4 5 5 5 3 4 4 3 2 4 5 5 4 4 4 4 4 5 6 5 6 7 6 4 3 3 6 5 3 3 8 10 11 10 10 10 5 3 2 3 3 5 5 7 6 5 5 4 4 4 9 5 4 3 4 2 6 7 8 8 10 12
3 3 3 2 1 2 1 2 1 1 3 3 3 3 2 4 4 4 4 5 5 4 5 6 6 6 5 5 5 5 4 4 3 2 3 3 3 3 3 3 3 2 3 3 5 5 5 5 6 6 5 4 4 8 10 11 10 11 11 8 4 2 3 4 5 6 7 9 6 4 3 4 3 3 2 2 1 2 3 3 3 3 4 7 10
1 2 2 1 2 2 2 0 2 3 2 2 3 5 4 3 4 5 4 4 4 5 4 5 5 5 3 3 5 4 3 4 4 4 3 4 4 4 4 3 3 3 4 4 4 5 5 5 5 5 5 4 3 11 13 13 12 11 11 7 4 3 3 4 5 6 8 10 11 6 4 5 5 4 3 0 0 1 2 3 3 3 4 5 6
2 1 2 1 2 1 2 3 2 2 3 4 4 4 4 3 3 4 4 6 7 7 6 4 5 5 6 5 6 6 5 5 6 5 5 5 4 5 5 5 5 5 5 4 4 4 5 5 6 7 6 6 5 14 14 14 13 12 10 5 5 4 4 5 6 6 9 9 7 4 5 7 5 1 6 6 2 1 2 3 4 4 5 5 6
0 2 3 2 2 3 3 2 3 3 3 3 3 2 3 5 5 5 6 7 6 6 7 6 6 5 4 5 6 5 5 6 4 3 3 4 5 5 5 5 5 5 6 6 6 6 5 5 5 4 4 6 5 12 15 15 13 12 8 5 5 5 5 6 6 7 7 6 7 6 6 4 3 2 7 7 3 1 1 2 4 5 6 6 6
3 3 2 2 3 3 3 3 3 4 5 4 3 4 4 4 5 6 7 7 8 8 8 8 8 8 8 7 7 8 8 6 5 7 6 5 4 3 4 5 6 6 6 7 6 5 4 5 5 5 7 7 6 11 16 14 14 14 11 6 5 5 5 6 6 5 6 6 10 19 15 4 6 3 8 8 5 2 1 2 3 5 7 7 6
4 3 3 3 4 4 4 4 4 5 5 5 4 4 4 5 6 5 7 7 6 6 6 6 5 5 6 5 2 2 2 1 3 3 3 4 3 3 3 3 4 4 4 3 3 4 4 5 6 8 10 9 7 8 15 15 15 15 11 6 5 4 5 5 5 6 5 5 5 8 14 10 1 9 10 7 6 2 0 2 2 4 6 7 7
3 5 5 4 3 3 4 5 6 6 5 5 5 7 7 7 6 5 6 7 6 6 6 5 5 5 4 4 5 8 7 5 5 4 3 3 3 3 3 3 4 3 4 4 5 6 9 8 7 8 8 9 7 5 12 16 16 15 15 8 5 5 6 6 5 5 4 5 5 5 5 10 13 11 9 8 6 3 2 2 1 2 4 7 5
3 1 4 4 4 4 5 6 6 6 6 5 6 6 6 7 7 7 8 8 7 6 6 6 6 6 6 6 5 5 5 5 5 4 3 4 4 4 5 5 5 5 4 5 5 4 5 4 4 4 4 5 6 6 10 17 16 17 17 13 7 6 6 5 5 6 5 4 4 3 4 5 11 10 9 8 5 6 5 4 3 4 4 7 7
3 2 1 2 2 3 5 6 5 5 5 6 6 7 8 7 7 8 9 8 8 8 7 7 7 8 8 8 7 6 6 5 4 4 3 3 3 4 5 5 4 4 5 6 5 5 5 5 5 5 5 5 6 9 6 15 17 18 17 18 9 8 7 5 5 5 4 4 2 5 2 4 5 7 6 6 7 7 9 6 7 10 11 12 9
3 3 4 5 5 5 6 6 5 5 6 6 6 7 8 7 9 9 7 7 8 7 8 8 8 8 7 7 6 6 5 4 5 5 5 5 4 5 5 5 4 5 6 6 6 5 4 5 5 5 5 6 6 7 12 11 16 17 18 17 17 11 11 8 6 6 5 4 4 3 4 9 9 7 7 8 8 11 7 9 13 11 12 11 6
5 4 5 5 6 7 7 7 6 5 7 8 8 9 9 9 10 8 7 7 7 8 8 7 6 6 6 6 6 5 5 4 5 6 6 6 6 5 5 5 4 5 6 6 6 5 5 5 6 6 5 6 7 7 10 14 14 19 18 18 18 18 14 9 7 6 6 5 5 0 5 9 9 9 10 9 11 11 10 14 13 13 12 7 4
5 6 8 8 8 6 6 5 5 6 7 8 7 8 9 11 10 8 9 8 8 8 8 8 8 8 8 7 6 6 5 5 6 7 7 7 7 6 6 5 5 6 6 6 6 5 5 5 6 6 6 5 5 7 5 11 17 17 19 19 19 19 18 15 9 8 6 6 4 3 4 9 8 9 12 12 10 13 17 15 13 13 10 5 6
8 7 8 8 4 6 5 5 7 9 7 3 4 4 7 8 8 8 8 8 7 6 6 7 8 8 9 8 8 7 7 7 6 6 7 7 7 7 7 7 7 7 7 6 6 6 6 6 6 5 5 4 5 5 6 6 10 12 14 19 20 18 17 16 14 9 10 10 7 7 8 9 9 10 8 7 8 10 12 13 14 12 5 6 5
4 5 5 7 6 6 5 6 7 6 5 5 5 6 7 7 7 7 6 6 7 8 9 10 10 9 8 7 8 7 6 6 7 7 6 6 6 7 8 8 7 6 6 6 6 6 5 5 5 5 5 4 5 3 5 5 8 8 8 10 7 8 9 6 5 8 9 9 11 11 9 12 12 13 13 12 12 14 11 8 6 6 6 6 7
8 7 7 9 10 10 5 5 8 6 4 4 6 7 6 6 7 7 5 5 5 6 8 9 10 10 8 7 7 10 10 7 7 7 7 7 7 7 7 8 7 7 7 7 6 6 6 5 5 5 5 6 4 3 2 2 5 6 6 6 7 8 7 8 8 8 8 8 8 8 10 10 9 9 9 8 8 9 10 9 8 7 7 8 9
10 8 5 7 10 12 8 4 5 4 5 6 6 6 6 6 6 6 7 8 7 7 7 7 6 5 6 6 6 5 6 6 7 8 7 7 7 7 9 8 8 7 7 6 5 5 5 4 3 3 2 3 3 2 2 2 5 5 4 4 6 8 8 8 11 12 7 6 6 7 7 8 8 9 9 8 8 8 8 8 9 7 7 7 7
9 9 9 8 7 9 7 6 7 6 7 7 6 7 6 7 7 5 4 4 5 4 5 5 5 6 6 5 4 4 5 7 7 7 7 7 9 10 7 5 4 3 7 9 7 6 5 5 5 5 4 4 4 3 9 8 8 8 8 9 7 6 5 3 3 5 5 5 6 6 6 6 6 5 6 6 6 6 6 5 6 8 7 6 5
9 10 12 11 8 8 10 10 6 4 6 7 7 7 7 7 7 5 5 5 5 6 6 6 6 6 6 6 5 5 5 5 5 5 6 8 6 9 12 11 10 11 12 11 11 11 9 7 7 5 5 6 8 12 13 11 10 10 10 9 7 7 6 5 3 3 2 4 6 6 7 8 9 8 8 8 8 8 7 6 4 2 8 8 7
Wind_Direction
151 156 152 168 170 170 179 179 171 167 171 178 138 199 191 227 237 192 157 72 45 336 336 10 33 327 317 355 320 298 334 356 103 65 54 17 54 345 357 29 344 332 337 342 7 15 355 322 328 357 5 8 13 358 335 317 356 345 327 325 326 339 334 4 30 326 306 306 209 216 239 118 56 324 168 196 215 199 184 76 221 151 158 272 308
172 158 150 165 169 166 168 195 181 180 177 182 180 172 195 206 216 216 109 43 316 10 14 11 330 210 287 269 288 301 15 332 355 59 97 77 65 36 346 17 6 337 318 341 37 23 350 335 331 343 29 349 354 340 354 335 7 347 341 343 351 350 341 14 19 355 332 341 328 322 300 81 131 175 339 112 326 119 133 158 143 218 155 182 217
154 174 162 171 176 186 179 195 190 191 178 186 191 192 188 193 190 194 151 161 205 47 346 284 324 336 325 306 326 334 293 9 333 308 107 98 60 63 4 337 40 345 326 335 38 32 345 333 334 335 15 347 345 348 0 347 357 354 351 1 351 349 350 13 349 37 329 322 289 267 325 62 36 12 39 11 300 300 96 39 208 207 176 157 191
132 179 184 169 179 193 196 188 198 184 175 187 183 201 201 193 193 192 176 155 101 119 247 251 215 267 270 286 325 322 334 315 293 310 20 58 49 24 52 339 13 20 350 338 26 24 1 347 348 344 354 355 349 345 10 358 350 349 3 360 1 355 355 351 358 32 10 343 347 359 295 270 84 31 345 146 328 284 202 212 256 241 228 152 150
107 143 175 178 179 192 198 200 180 197 181 184 180 194 199 204 198 203 161 162 166 160 222 296 356 308 284 325 326 331 323 290 333 329 328 70 38 52 60 340 340 43 346 341 352 23 3 346 351 354 357 6 3 347 2 359 338 354 11 8 4 353 346 340 345 17 21 13 18 334 344 29 46 267 308 276 300 325 294 229 260 302 260 194 171
76 117 165 202 189 181 193 188 186 196 197 174 174 187 201 193 199 195 147 172 173 178 188 100 232 241 95 297 251 256 261 224 270 251 312 71 303 107 98 23 359 38 359 345 9 359 348 347 353 1 0 354 3 359 352 355 356 4 12 1 355 357 349 344 351 355 20 158 132 177 195 323 320 300 284 349 212 290 268 283 181 203 294 246 185
109 139 160 184 193 181 191 189 193 205 194 176 176 192 197 194 191 191 177 175 181 189 186 189 190 217 213 213 226 229 259 313 203 186 297 2 19 20 87 59 25 15 355 348 17 358 349 358 347 360 2 341 357 10 359 3 354 355 7 2 353 345 353 349 357 344 344 19 12 11 35 212 9 308 360 319 315 285 307 357 350 312 263 274 241
140 126 111 134 165 185 194 198 196 202 202 191 177 178 187 193 188 191 185 195 195 186 193 186 218 213 216 235 238 222 207 228 173 72 305 130 283 197 108 93 70 16 0 15 10 9 359 355 353 352 348 349 340 22 9 350 354 353 352 352 340 348 348 352 341 345 358 348 359 353 357 356 87 312 73 346 300 310 304 325 223 274 299 285 283
104 104 123 145 123 164 162 207 193 195 202 197 172 162 171 181 183 188 196 197 197 204 209 195 207 192 209 214 233 218 273 238 202 167 229 46 229 326 55 107 139 106 28 33 18 23 5 345 357 343 341 353 348 10 5 350 349 352 342 344 345 344 350 341 345 346 349 357 355 353 340 358 19 33 24 66 318 324 302 324 310 301 265 247 233
103 113 121 97 113 127 130 158 149 192 198 185 194 159 181 173 194 200 206 203 211 216 217 209 209 207 201 238 236 198 223 200 264 164 153 241 296 329 318 111 164 133 98 25 30 18 57 360 347 336 340 355 357 359 360 345 352 345 340 327 334 344 343 344 357 349 342 355 9 347 346 346 354 359 24 2 304 235 300 322 322 311 321 284 175
96 116 114 109 106 114 139 148 157 158 157 210 203 183 162 191 196 202 206 208 216 218 222 219 201 199 209 222 230 233 229 208 193 199 170 210 229 84 306 256 279 95 117 78 74 5 62 11 352 350 349 349 356 357 345 347 349 347 337 334 350 2 357 358 3 351 347 5 355 8 356 351 340 338 350 351 330 325 327 309 285 277 256 291 237
102 130 119 118 119 112 131 114 106 127 169 204 220 225 192 175 189 198 208 203 214 208 214 209 210 211 224 227 239 247 247 202 192 204 219 225 176 168 261 281 304 149 136 109 68 35 4 15 5 8 356 359 349 348 350 347 356 350 346 353 349 4 359 3 358 353 356 355 360 357 347 341 330 344 338 332 341 332 314 306 313 326 311 284 283
103 105 111 146 143 137 148 142 134 172 209 200 230 244 234 200 201 197 227 200 214 204 210 203 212 220 224 230 249 268 339 273 232 200 220 201 249 205 183 288 135 330 90 69 50 4 31 20 354 358 323 316 351 358 348 338 1 348 349 358 356 359 356 359 357 355 351 344 358 351 338 340 323 311 314 330 323 300 301 315 320 320 290 295 274
265 101 90 58 136 147 130 156 158 175 181 197 226 221 264 250 229 192 217 217 209 222 223 205 203 234 234 214 223 241 226 224 235 218 199 186 140 195 175 324 332 334 89 80 97 329 59 28 22 358 316 338 7 3 345 344 9 358 346 0 349 341 351 358 341 350 346 350 1 344 337 323 297 298 320 333 337 337 331 331 325 314 312 295 282
85 105 94 113 91 109 124 86 64 138 155 164 169 225 238 298 315 297 273 136 248 217 249 240 195 202 233 193 207 250 231 84 359 295 159 172 136 280 37 36 308 321 79 90 63 335 100 63 48 9 339 325 7 3 333 357 12 354 329 353 337 327 328 317 324 337 332 352 346 339 332 327 334 329 319 300 328 314 316 318 317 326 320 311 306
52 94 109 97 113 85 128 132 190 98 137 143 182 175 200 223 189 233 281 145 180 215 248 140 242 182 220 227 215 213 209 189 161 179 137 165 206 256 151 168 244 289 106 112 95 301 278 94 101 122 275 343 6 316 301 333 42 337 340 344 337 350 342 341 349 339 327 340 336 319 322 326 318 312 331 331 315 318 315 320 325 312 317 317 328
24 85 98 136 101 131 108 171 191 168 198 159 163 181 197 164 280 282 203 206 202 144 213 175 231 226 215 237 237 224 196 205 178 195 210 156 168 134 26 198 244 297 264 108 105 291 265 137 134 99 344 36 288 300 321 327 291 169 279 331 323 1 339 326 320 313 312 333 323 325 307 300 303 323 324 330 334 321 305 298 300 300 294 288 306
50 79 90 82 119 116 223 93 299 99 355 54 164 154 163 185 227 225 240 268 215 215 163 203 198 202 218 209 234 241 229 220 203 200 198 182 166 188 196 150 213 265 265 106 87 275 293 145 143 153 204 256 243 241 269 270 290 335 301 277 290 310 288 294 304 319 313 318 320 316 324 313 307 310 329 332 322 320 315 301 294 296 300 288 294
169 139 126 133 145 155 73 344 21 61 149 314 340 148 156 194 202 222 235 201 237 198 217 213 190 250 222 225 216 241 244 237 231 194 197 197 187 178 200 197 200 238 284 128 112 241 246 115 76 209 181 197 199 239 235 246 223 223 289 289 289 283 269 281 269 283 307 323 333 326 322 310 295 275 270 333 324 314 311 313 298 291 293 295 294
13 92 113 115 87 44 112 69 289 117 244 145 164 154 200 182 205 210 271 256 217 220 184 234 226 210 221 227 229 223 225 218 214 199 213 216 208 183 202 188 189 218 277 286 203 239 236 99 123 328 275 190 207 196 214 224 222 190 211 217 249 277 288 284 281 280 295 319 320 311 316 302 298 299 349 352 318 305 300 306 310 303 295 293 295
37 26 44 122 120 171 147 167 271 287 307 100 71 283 257 201 202 213 205 202 229 243 255 255 248 218 221 237 242 234 256 242 222 211 225 221 219 193 189 187 174 197 250 262 230 238 99 86 59 215 272 312 295 271 187 210 227 247 225 221 234 270 302 308 313 311 300 277 284 302 304 303 307 308 338 315 299 307 309 297 297 298 286 282 275
100 91 303 69 125 171 172 176 236 221 185 165 151 185 196 223 274 228 180 199 205 227 206 230 256 291 274 249 239 233 225 232 246 227 230 226 215 204 182 183 203 207 206 271 294 335 18 92 149 341 296 272 298 274 301 45 317 266 261 233 213 230 261 295 305 303 294 274 291 284 303 301 308 301 289 313 320 309 293 274 255 259 277 284 300
133 235 197 156 162 249 298 208 228 255 273 102 96 326 312 309 211 210 228 169 166 206 258 217 204 217 230 231 240 253 255 240 257 254 238 229 219 215 190 193 189 214 206 225 270 1 237 251 181 192 337 285 241 279 323 228 254 315 329 326 292 247 245 284 297 298 311 326 302 296 306 311 317 310 314 316 296 284 286 293 290 255 250 261 266
200 183 175 286 251 202 203 218 221 225 162 158 169 238 234 196 213 322 323 348 140 157 206 254 251 215 206 212 220 220 224 231 227 236 241 226 228 201 203 192 215 199 220 206 235 243 230 358 0 126 241 274 204 99 307 318 3 325 302 315 319 285 253 300 317 313 314 310 310 314 311 314 315 313 317 315 296 298 317 334 338 344 325 318 324
204 204 200 199 208 267 302 298 325 23 262 137 167 199 224 297 133 157 262 243 176 181 210 227 228 227 211 231 228 210 215 219 214 214 242 246 233 210 181 219 203 202 234 208 235 281 168 161 246 253 262 248 214 155 288 236 48 24 347 307 310 331 328 297 265 260 281 295 299 298 308 306 300 308 309 302 4 4 345 337 334 329 324 330 332
193 225 219 230 266 281 274 266 264 277 328 246 154 168 220 293 245 145 89 334 307 222 246 313 316 292 270 248 238 244 244 240 226 221 239 227 221 213 192 201 212 230 211 204 235 275 285 290 245 195 213 307 345 121 213 208 104 47 343 359 350 330 314 280 267 254 252 267 276 286 295 307 299 301 306 330 25 339 333 326 325 319 321 326 323
209 210 236 207 203 210 252 261 290 322 314 299 293 205 233 200 171 147 191 216 255 34 6 282 262 258 270 292 295 261 181 281 284 239 225 225 255 324 240 204 209 227 234 192 186 245 249 209 257 325 306 307 0 308 354 112 176 110 61 33 339 319 313 313 300 306 304 290 281 291 282 271 275 291 310 331 344 333 324 325 308 305 313 311 313
203 208 207 220 217 215 209 225 230 258 271 298 309 308 188 181 172 230 181 181 154 131 259 274 282 274 212 251 260 50 86 259 260 258 248 191 187 209 216 238 213 202 210 237 245 246 251 253 299 256 256 260 261 299 280 293 111 118 109 345 302 302 304 311 315 302 288 271 278 289 294 288 281 276 283 314 316 304 314 313 307 312 322 333 329
237 221 192 193 200 192 215 210 198 213 238 262 279 271 271 210 201 228 260 172 155 172 222 242 248 233 206 223 216 191 155 191 196 231 224 216 225 249 213 207 216 231 183 234 250 253 273 272 232 221 223 193 195 228 254 146 145 153 154 171 285 323 301 292 285 277 279 298 299 285 277 268 276 297 315 306 290 279 278 267 285 304 316 321 315
230 225 232 176 175 161 170 159 176 227 248 236 217 238 287 291 188 212 224 219 170 180 222 257 266 271 228 203 219 178 179 200 192 210 223 215 210 215 242 293 251 225 218 202 221 256 271 290 297 296 267 186 202 223 142 156 164 152 148 184 242 274 307 303 313 315 303 278 266 262 264 286 298 295 279 280 283 273 229 233 246 268 283 298 305
269 238 193 185 205 204 180 184 189 209 228 239 251 284 204 243 290 309 277 262 248 206 186 196 236 262 280 270 190 205 174 198 198 197 211 222 214 203 191 198 218 248 254 263 252 236 233 240 269 264 274 280 251 161 160 150 148 138 143 181 235 258 284 303 292 288 280 274 280 279 275 292 301 297 298 297 305 263 236 234 247 256 268 270 289
265 280 273 265 253 170 181 177 201 197 208 211 216 213 227 243 239 251 253 219 199 249 2 320 290 257 247 251 261 219 203 213 194 200 198 205 212 209 210 202 198 209 208 210 246 266 270 258 237 283 282 261 267 155 164 160 153 165 181 195 225 240 277 272 275 282 299 304 301 309 308 305 293 295 299 307 303 300 261 211 222 241 254 256 242
271 284 314 322 322 357 24 77 155 193 237 240 214 212 229 220 213 210 222 303 55 148 203 232 239 254 262 260 240 277 304 269 206 211 203 200 215 213 209 205 203 202 196 192 211 215 228 240 257 270 289 296 283 161 163 161 167 181 196 209 235 218 245 264 279 290 289 289 287 289 300 291 289 299 304 297 313 345 129 211 222 242 251 248 251
357 335 327 344 290 221 273 1 9 215 235 251 300 322 190 188 237 246 218 209 226 219 215 227 242 243 235 223 225 228 227 260 264 217 196 200 215 233 220 217 216 199 206 216 218 213 206 214 223 246 258 262 295 154 165 173 180 191 199 205 240 226 241 259 275 283 282 275 263 246 257 279 275 275 289 50 27 355 343 332 311 306 297 279 256
358 6 343 324 5 350 7 222 222 251 231 241 231 210 235 245 205 225 264 265 229 236 238 232 222 225 247 287 295 282 249 235 241 232 227 219 212 214 209 206 199 200 212 219 222 222 216 221 224 223 230 226 252 160 178 184 190 194 199 205 238 247 260 269 267 269 271 269 265 235 234 244 254 264 115 189 62 324 318 300 294 292 298 293 297
216 267 341 336 318 282 214 207 206 210 235 223 225 203 208 227 236 238 216 217 233 238 243 236 230 216 226 222 220 224 220 234 249 246 238 235 225 214 213 209 213 211 211 216 219 216 221 219 219 220 221 223 198 173 183 191 194 197 184 201 225 236 247 250 252 256 265 271 270 236 222 230 243 201 150 144 125 20 283 300 302 308 305 296 294
338 244 234 235 221 216 218 208 195 204 202 216 237 257 220 208 219 235 241 250 250 248 246 235 234 243 242 231 221 231 232 224 229 249 242 229 223 218 214 204 211 210 212 216 224 221 220 221 224 216 207 215 197 186 186 195 194 188 178 209 221 236 252 253 251 246 252 277 285 257 231 238 214 218 145 118 117 181 266 304 313 307 301 300 292
217 193 220 221 210 213 217 208 214 206 204 209 218 219 224 236 232 226 231 237 238 238 239 244 246 239 227 220 218 215 225 223 221 231 242 240 222 218 219 199 210 216 218 219 221 222 223 224 216 218 213 221 227 188 191 192 190 184 191 200 222 236 253 254 261 265 260 252 264 286 301 285 238 154 136 134 161 201 341 322 306 304 306 301 293
191 198 212 223 209 210 215 211 214 222 213 207 203 219 227 231 233 229 238 246 248 254 260 265 263 263 262 255 251 293 297 304 299 303 316 311 287 262 245 226 223 227 228 214 224 227 229 225 218 221 223 222 229 188 187 187 189 188 194 210 218 250 256 264 263 267 260 259 272 258 268 266 150 133 145 150 172 165 12 291 300 305 300 298 297
206 180 194 205 222 232 214 220 229 227 219 223 211 213 214 225 236 242 242 242 241 241 247 252 259 263 271 273 259 245 229 213 213 213 224 249 266 274 260 239 231 240 253 249 239 228 228 234 234 231 231 225 218 182 186 189 188 191 193 201 213 220 244 248 258 268 285 275 259 268 53 94 118 140 152 163 171 153 184 246 265 284 287 287 307
240 241 166 191 198 221 239 235 225 226 230 225 220 227 230 221 219 222 232 239 242 245 247 248 247 250 249 247 244 232 204 194 190 189 199 217 217 236 245 247 242 235 242 245 252 263 261 258 253 260 241 215 204 197 189 189 191 191 196 198 211 218 233 253 262 265 261 284 310 347 103 151 156 158 159 164 152 189 208 234 225 235 244 268 293
243 241 295 281 247 236 237 245 246 244 233 230 226 232 234 235 232 228 228 227 232 239 240 237 238 241 241 240 238 231 213 204 190 181 198 219 224 228 237 245 243 238 239 239 237 232 233 246 250 245 247 240 218 213 187 194 192 194 195 199 205 217 215 228 253 272 285 283 321 314 194 173 132 128 148 166 194 203 221 235 236 233 247 262 277
274 239 231 216 231 242 247 251 244 236 238 238 238 239 236 234 237 236 231 228 229 234 236 238 238 240 243 244 237 223 207 186 183 183 195 215 221 234 242 246 247 249 252 254 250 247 245 249 246 234 233 233 227 222 206 193 196 195 198 199 207 212 211 215 233 252 254 278 288 297 96 146 177 177 181 198 208 218 217 234 241 247 253 263 277
280 294 292 284 280 263 240 235 238 233 228 229 229 235 235 237 241 232 226 227 232 234 240 248 245 239 237 239 240 231 214 200 189 189 198 207 217 225 231 235 237 241 245 244 242 240 242 248 252 247 237 232 229 223 209 194 192 198 199 200 207 215 210 215 217 234 242 250 260 151 162 177 183 195 210 215 223 220 227 238 237 243 255 264 262
275 269 270 267 273 286 291 296 285 252 235 241 234 239 238 239 240 232 227 225 228 231 234 239 241 239 235 234 235 235 228 218 209 196 201 205 216 218 230 227 231 235 241 249 248 247 240 242 243 244 246 244 230 218 211 197 194 195 199 201 207 211 218 215 219 233 242 241 248 133 168 189 208 213 222 229 239 243 242 249 254 255 256 258 241
275 286 301 303 300 303 306 300 288 288 295 288 277 264 258 248 244 231 226 225 224 238 254 252 243 235 231 225 227 231 234 232 221 205 203 205 209 213 218 224 224 227 229 231 237 239 243 245 245 247 250 246 233 222 223 190 198 194 198 205 207 209 214 212 215 237 243 258 270 244 236 238 244 248 245 240 246 253 248 241 240 243 237 234 237
338 321 307 292 284 258 262 274 281 281 277 275 272 270 277 286 275 255 237 218 212 222 241 254 255 249 236 222 221 224 231 231 223 216 214 211 208 212 217 217 220 229 230 228 229 230 236 238 245 250 254 257 263 257 241 191 186 193 201 206 208 227 227 222 222 242 253 256 255 255 253 254 258 245 238 256 264 271 272 256 234 218 214 224 236
315 307 304 307 303 293 260 242 266 270 271 277 277 276 271 264 277 284 273 253 231 218 233 245 249 246 241 227 219 219 222 233 225 213 215 217 219 222 223 221 223 224 225 230 223 218 219 214 233 237 248 254 259 264 10 34 169 194 198 195 198 207 199 201 217 225 226 233 237 244 249 254 253 258 255 251 251 256 257 251 241 227 219 219 224
301 295 294 294 292 283 272 266 282 291 286 276 272 271 273 273 261 248 249 256 254 236 234 246 256 263 254 235 227 219 221 225 228 224 220 216 216 217 222 221 217 217 214 218 215 208 193 189 198 228 260 300 286 302 149 276 105 114 153 198 205 205 212 212 220 221 226 228 229 233 242 245 239 239 243 244 247 252 256 246 240 222 226 213 197
290 299 294 276 276 294 283 241 236 247 259 268 271 272 273 275 279 289 309 314 295 274 257 254 257 260 264 250 237 234 243 247 237 230 223 221 219 224 226 224 219 210 180 192 186 202 193 193 208 229 213 224 250 156 166 147 126 118 118 119 118 101 101 125 132 188 214 236 234 238 238 242 255 247 241 239 243 242 251 243 219 218 215 205 200
312 309 305 301 291 273 278 282 278 254 245 255 267 269 272 271 273 280 281 271 270 267 258 252 250 251 251 253 249 245 248 262 263 250 235 224 217 220 229 234 239 189 178 177 195 198 197 200 199 230 226 186 149 145 164 176 163 158 157 156 147 148 144 140 163 159 180 214 239 246 249 249 247 249 250 249 242 248 252 253 276 191 188 208 202